Location: Stonelick Lake State Park
(39.2170°N, 84.0850°W)
Time: 18:33:08
(UTC-04:00)

Amateur Radio Satellites - All Passes

Search period start: 19 August 2017 18:03
Search period end: 20 August 2017 18:03
Location: Stonelick Lake State Park, 39.2170°N, 84.0850°W

Satellite Date Start Highest point End Downlink Frequencies (MHz)
Time Altitude Azimuth
CUBESAT XI-V 19 Aug 18:07:33 18:12:18 88° 102° (ESE) 18:17:00 437.345
XW-2B 19 Aug 18:07:40 18:10:23 19° 69° (ENE) 18:13:06 145.730 - 145.750
NUDT-PHONESAT 19 Aug 18:09:55 18:12:00 15° 67° (ENE) 18:14:05 437.300
KKS-1 19 Aug 18:14:43 18:18:58 43° 99° (E) 18:23:10 437.445
XW-2C 19 Aug 18:25:55 18:29:16 32° 72° (ENE) 18:32:40 145.795 - 145.815
ITUPSAT 1 19 Aug 18:29:45 18:31:38 12° 299° (WNW) 18:33:30 437.325
XW-2F 19 Aug 18:39:08 18:42:41 44° 74° (ENE) 18:46:16 145.980 - 146.000
Tancredo 1 19 Aug 18:40:01 18:40:59 11° 231° (SW) 18:41:57 437.200
YUBILEINY 19 Aug 18:50:15 18:57:25 27° 291° (WNW) 19:04:35 435.215
STARS 19 Aug 18:57:36 19:01:51 52° 100° (E) 19:06:06 437.465
HO-68 19 Aug 19:04:18 19:10:39 36° 64° (ENE) 19:17:00 435.675
DOVE 4 19 Aug 19:04:57 19:09:38 32° 264° (W) 19:14:18 437.250
KAITUO 1B 19 Aug 19:06:45 19:10:27 84° 74° (ENE) 19:14:11 145.475/437.950
RS-15 19 Aug 19:08:01 19:17:59 28° 28° (NNE) 19:27:32 29.354- 29.394
CUTE-I 19 Aug 19:12:18 19:17:40 84° 256° (WSW) 19:23:03 437.470
SEEDS 19 Aug 19:17:32 19:19:59 15° 66° (ENE) 19:22:27 437.485
ISS 19 Aug 19:21:18 19:23:49 21° 228° (SW) 19:26:19 437.550
LilacSat-2 19 Aug 19:23:40 19:27:12 39° 262° (W) 19:30:47 437.200
XW-2D 19 Aug 19:29:55 19:33:20 33° 263° (W) 19:36:47 145.860 - 145.880
nSIGHT-1 19 Aug 19:32:08 19:34:06 15° 230° (SW) 19:36:03 .
XW-2A 19 Aug 19:35:09 19:37:11 15° 69° (ENE) 19:39:12 145.665 - 145.685
O/OREOS (USA 219) 19 Aug 19:35:12 19:38:09 17° 56° (NE) 19:41:06 437.305
XW-2B 19 Aug 19:41:14 19:44:24 26° 264° (W) 19:47:35 145.730 - 145.750
NUDT-PHONESAT 19 Aug 19:42:16 19:45:35 33° 263° (W) 19:48:56 437.300
STRAND 1 19 Aug 19:44:02 19:45:34 11° 90° (E) 19:47:05 437.568
KKS-1 19 Aug 19:52:18 19:55:09 17° 295° (WNW) 19:57:58 437.445
UWE-3 19 Aug 19:53:36 19:56:29 18° 68° (ENE) 19:59:21 435.000/436.395/437.385
CUBEBUG 2 19 Aug 19:56:39 20:00:33 34° 72° (ENE) 20:04:22 437.445
CUTE 1.7 + AOD 2 19 Aug 20:00:21 20:04:34 76° 77° (ENE) 20:08:49 437.475
XW-2C 19 Aug 20:01:20 20:03:32 15° 267° (W) 20:05:45 145.795 - 145.815
AAUSAT CUBESAT 2 19 Aug 20:06:28 20:09:48 24° 69° (ENE) 20:13:09 437.432
Oscar 11 19 Aug 20:11:46 20:12:37 10° 63° (ENE) 20:13:27 .
XW-2F 19 Aug 20:16:09 20:17:02 11° 269° (W) 20:17:56 145.980 - 146.000
STARS 19 Aug 20:35:28 20:37:43 14° 296° (WNW) 20:39:59 437.465
ZACube-1 19 Aug 20:35:50 20:39:25 28° 70° (ENE) 20:42:59 437.345
SEEDS 19 Aug 20:51:16 20:55:16 43° 262° (W) 20:59:19 437.485
HO-68 19 Aug 20:51:29 20:58:11 43° 261° (W) 21:04:57 435.675
AO-73 19 Aug 20:57:29 21:01:26 45° 73° (ENE) 21:05:22 145.935
XW-2A 19 Aug 21:06:56 21:09:42 24° 264° (W) 21:12:29 145.665 - 145.685
O/OREOS (USA 219) 19 Aug 21:13:27 21:17:50 49° 253° (WSW) 21:22:13 437.305
STRAND 1 19 Aug 21:20:10 21:25:16 77° 285° (WNW) 21:30:21 437.568
RS-15 19 Aug 21:20:50 21:32:57 75° 56° (NE) 21:44:22 29.354- 29.394
DELFI C3 19 Aug 21:26:03 21:28:28 16° 67° (ENE) 21:30:55 145.870
UWE-3 19 Aug 21:28:50 21:32:42 34° 262° (W) 21:36:31 435.000/436.395/437.385
Max Valier Satellite 19 Aug 21:31:31 21:32:57 12° 66° (ENE) 21:34:23 145.860
CUBEBUG 2 19 Aug 21:34:14 21:37:14 18° 266° (W) 21:40:12 437.445
AAUSAT CUBESAT 2 19 Aug 21:41:38 21:45:07 26° 265° (W) 21:48:38 437.432
Oscar 11 19 Aug 21:43:51 21:48:07 70° 258° (WSW) 21:52:26 .
FO-29 19 Aug 21:54:41 21:58:13 17° 90° (E) 22:01:35 435.910
ZACube-1 19 Aug 22:12:32 22:15:41 21° 265° (W) 22:18:51 437.345
EO-88 19 Aug 22:26:18 22:29:45 45° 74° (ENE) 22:33:15 145.990 - 145.960
AO-73 19 Aug 22:35:54 22:37:53 13° 268° (W) 22:39:53 145.935
UNISAT 6 19 Aug 22:55:17 22:59:02 28° 97° (E) 23:02:49 437.425
DELFI C3 19 Aug 22:59:12 23:02:54 37° 262° (W) 23:06:39 145.870
Max Valier Satellite 19 Aug 23:02:56 23:06:23 41° 261° (W) 23:09:52 145.860
SO-50 19 Aug 23:11:03 23:13:30 15° 109° (ESE) 23:15:57 436.795
PRISM 19 Aug 23:25:07 23:29:01 40° 99° (E) 23:32:52 437.425
TIGRISAT 19 Aug 23:30:22 23:34:39 66° 101° (E) 23:39:00 435.000
RS-15 19 Aug 23:34:42 23:44:09 29° 258° (WSW) 23:53:16 29.354- 29.394
FO-29 19 Aug 23:38:21 23:43:49 52° 289° (WNW) 23:48:51 435.910
PCSat 19 Aug 23:46:12 23:51:33 68° 115° (ESE) 23:56:58 145.827
LO-87 20 Aug 00:00:21 00:03:56 90° 187° (S) 00:07:33 145.935 - 145.965
ESTCUBE 1 20 Aug 00:08:09 00:12:36 67° 75° (ENE) 00:17:07 437.505/2401.250
VELOX 1 20 Aug 00:21:59 00:25:09 19° 66° (ENE) 00:28:19 145.980
M-CUBED/EXP-1 PRIME 20 Aug 00:29:06 00:32:31 23° 98° (E) 00:35:45 437.505
AIST 2D 20 Aug 00:30:01 00:33:20 37° 98° (E) 00:36:39 435.315
UNISAT 6 20 Aug 00:32:11 00:35:36 23° 291° (WNW) 00:39:03 437.425
DUCHIFAT 1 20 Aug 00:36:19 00:38:27 14° 92° (E) 00:40:35 145.980
SPROUT 20 Aug 00:38:39 00:42:29 33° 71° (ENE) 00:46:19 437.525
SO-50 20 Aug 00:49:02 00:53:28 56° 305° (NW) 00:57:55 436.795
PRISM 20 Aug 01:01:25 01:03:56 16° 294° (WNW) 01:06:25 437.425
50 SAT 20 Aug 01:02:41 01:04:42 15° 68° (ENE) 01:06:44 437.505
TIGRISAT 20 Aug 01:09:37 01:10:48 11° 297° (WNW) 01:11:57 435.000
NANOSAT C BR1 20 Aug 01:19:01 01:23:06 50° 100° (E) 01:27:10 145.865
POLYITAN 1 20 Aug 01:22:26 01:26:37 62° 102° (ESE) 01:30:47 437.675
PCSat 20 Aug 01:31:38 01:35:28 19° 314° (NW) 01:39:19 145.827
QB50P2 20 Aug 01:37:29 01:41:42 78° 283° (WNW) 01:45:54 145.880/145.840
EO-79 20 Aug 01:38:38 01:42:51 84° 284° (WNW) 01:47:03 145.935-145.965
UKube-1 20 Aug 01:44:05 01:47:44 27° 69° (ENE) 01:51:24 .
NO-84 20 Aug 01:47:56 01:50:11 20° 128° (SE) 01:52:24 435.350 FM
ESTCUBE 1 20 Aug 01:48:52 01:49:50 11° 270° (W) 01:50:47 437.505/2401.250
VELOX 1 20 Aug 01:57:09 02:01:18 38° 262° (W) 02:05:29 145.980
DX 1 20 Aug 02:02:22 02:06:43 68° 75° (ENE) 02:11:05 434.975-435.025
M-CUBED/EXP-1 PRIME 20 Aug 02:03:05 02:06:56 30° 296° (WNW) 02:10:33 437.505
AIST 2D 20 Aug 02:04:38 02:06:10 12° 293° (WNW) 02:07:42 435.315
DUCHIFAT 1 20 Aug 02:10:20 02:14:20 45° 287° (WNW) 02:18:18 145.980
BUGSAT 1 20 Aug 02:15:14 02:19:09 50° 100° (E) 02:23:03 437.445
SPROUT 20 Aug 02:15:23 02:18:26 19° 266° (W) 02:21:30 437.525
Oscar 19 20 Aug 02:32:23 02:37:06 34° 97° (E) 02:41:47 437.125/150
50 SAT 20 Aug 02:34:11 02:37:08 27° 263° (W) 02:40:06 437.505
NANOSAT C BR1 20 Aug 02:56:18 02:58:22 14° 295° (WNW) 03:00:26 145.865
POLYITAN 1 20 Aug 03:00:35 03:01:51 11° 297° (WNW) 03:03:07 437.675
YUBILEINY 20 Aug 03:03:29 03:10:50 29° 70° (ENE) 03:18:05 435.215
MOZHAYETS 4 20 Aug 03:16:33 03:20:10 24° 68° (ENE) 03:23:48
UKube-1 20 Aug 03:20:08 03:23:41 25° 264° (W) 03:27:15 .
BEESAT 20 Aug 03:22:02 03:26:19 35° 69° (ENE) 03:30:36 436.000
NO-84 20 Aug 03:25:01 03:27:28 24° 324° (NW) 03:29:52 435.350 FM
Gurwin Techsat 1B 20 Aug 03:36:03 03:41:24 88° 103° (ESE) 03:46:43 435.225
ITAMSAT 1 20 Aug 03:51:47 03:53:37 12° 90° (E) 03:55:27 435.822/435.867
BUGSAT 1 20 Aug 03:52:24 03:54:03 12° 295° (WNW) 03:55:42 437.445
ITUPSAT 1 20 Aug 03:55:04 03:59:49 76° 74° (ENE) 04:04:35 437.325
AO-7 20 Aug 03:58:44 04:05:09 24° 94° (E) 04:11:28 .
Oscar 19 20 Aug 04:11:53 04:16:16 28° 293° (WNW) 04:20:39 437.125/150
MOZHAYETS 4 20 Aug 04:53:07 04:57:09 31° 263° (W) 05:01:12
YUBILEINY 20 Aug 04:59:36 05:08:05 59° 269° (W) 05:16:31 435.215
BEESAT 20 Aug 05:00:24 05:04:07 23° 265° (W) 05:07:52 436.000
CUBESAT XI-V 20 Aug 05:09:20 05:13:57 75° 76° (ENE) 05:18:38 437.345
KKS-1 20 Aug 05:11:32 05:15:36 36° 71° (ENE) 05:19:42 437.445
Gurwin Techsat 1B 20 Aug 05:18:37 05:20:33 12° 301° (WNW) 05:22:29 435.225
ITAMSAT 1 20 Aug 05:28:26 05:33:37 76° 286° (WNW) 05:38:46 435.822/435.867
BEESAT 3 20 Aug 05:28:59 05:32:04 22° 112° (ESE) 05:35:12 437.485
ITUPSAT 1 20 Aug 05:37:45 05:38:08 10° 270° (W) 05:38:32 437.325
AO-7 20 Aug 05:50:13 05:58:30 70° 292° (WNW) 06:06:42 .
STARS 20 Aug 05:52:51 05:56:59 41° 71° (ENE) 06:01:07 437.465
AO-85 20 Aug 06:19:12 06:23:01 48° 117° (ESE) 06:26:47 145.980
KKS-1 20 Aug 06:48:57 06:52:13 20° 266° (W) 06:55:31 437.445
LilacSat-2 20 Aug 06:58:02 07:01:06 22° 95° (E) 07:04:08 437.200
STRAND 1 20 Aug 06:58:12 07:01:19 16° 63° (ENE) 07:04:26 437.568
XW-2D 20 Aug 07:03:20 07:06:32 24° 96° (E) 07:09:42 145.860 - 145.880
DOVE 4 20 Aug 07:04:48 07:09:23 85° 102° (ESE) 07:13:41 437.250
BEESAT 3 20 Aug 07:05:52 07:09:27 31° 308° (NW) 07:13:06 437.485
NUDT-PHONESAT 20 Aug 07:13:32 07:16:31 22° 95° (E) 07:19:30 437.300
XW-2B 20 Aug 07:14:08 07:17:36 31° 97° (E) 07:21:03 145.730 - 145.750
BEESAT 2 20 Aug 07:16:52 07:20:51 72° 302° (WNW) 07:24:54 435.950
CUTE-I 20 Aug 07:30:35 07:35:38 42° 99° (E) 07:40:38 437.470
STARS 20 Aug 07:30:36 07:33:27 17° 266° (W) 07:36:20 437.465
XW-2C 20 Aug 07:32:54 07:36:43 57° 101° (E) 07:40:29 145.795 - 145.815
SO-50 20 Aug 07:42:16 07:44:30 13° 41° (NE) 07:46:45 436.795
AO-7 20 Aug 07:45:22 07:49:46 16° 312° (NW) 07:54:11 .
XW-2F 20 Aug 07:45:48 07:49:39 80° 102° (ESE) 07:53:29 145.980 - 146.000
CUTE 1.7 + AOD 2 20 Aug 07:47:38 07:50:00 14° 92° (E) 07:52:21 437.475
AO-85 20 Aug 08:01:15 08:03:39 15° 315° (NW) 08:06:03 145.980
FO-29 20 Aug 08:08:32 08:10:13 11° 56° (NE) 08:11:52 435.910
KAITUO 1B 20 Aug 08:12:38 08:16:22 57° 285° (WNW) 08:20:06 145.475/437.950
HO-68 20 Aug 08:19:54 08:26:34 40° 98° (E) 08:33:12 435.675
NO-84 20 Aug 08:21:56 08:23:25 13° 29° (NNE) 08:24:56 435.350 FM
XW-2A 20 Aug 08:29:33 08:31:59 18° 95° (E) 08:34:25 145.665 - 145.685
LilacSat-2 20 Aug 08:32:09 08:35:17 24° 290° (WNW) 08:38:25 437.200
STRAND 1 20 Aug 08:34:56 08:39:58 60° 258° (WSW) 08:45:02 437.568
PCSat 20 Aug 08:35:13 08:40:23 43° 56° (NE) 08:45:31 145.827
SEEDS 20 Aug 08:36:00 08:39:49 31° 97° (E) 08:43:36 437.485
XW-2D 20 Aug 08:37:37 08:40:33 21° 291° (WNW) 08:43:30 145.860 - 145.880
NUDT-PHONESAT 20 Aug 08:47:21 08:50:18 22° 290° (WNW) 08:53:14 437.300
XW-2B 20 Aug 08:49:01 08:51:31 17° 292° (WNW) 08:54:01 145.730 - 145.750
XW-2C 20 Aug 09:10:07 09:10:22 10° 295° (WNW) 09:10:38 145.795 - 145.815
CUTE-I 20 Aug 09:11:13 09:15:24 24° 295° (WNW) 09:19:33 437.470
UWE-3 20 Aug 09:18:35 09:22:41 45° 99° (E) 09:26:51 435.000/436.395/437.385
SO-50 20 Aug 09:21:00 09:25:35 88° 244° (WSW) 09:30:12 436.795
CUTE 1.7 + AOD 2 20 Aug 09:21:56 09:26:02 45° 287° (WNW) 09:30:07 437.475
AAUSAT CUBESAT 2 20 Aug 09:23:51 09:27:56 49° 99° (E) 09:31:58 437.432
CUBEBUG 2 20 Aug 09:24:02 09:28:14 86° 286° (WNW) 09:32:33 437.445
Tancredo 1 20 Aug 09:29:35 09:31:47 20° 133° (SE) 09:34:01 437.200
Oscar 11 20 Aug 09:32:34 09:36:02 23° 95° (E) 09:39:29 .
O/OREOS (USA 219) 20 Aug 09:46:30 09:49:48 21° 101° (ESE) 09:53:08 437.305
FO-29 20 Aug 09:46:35 09:54:05 61° 72° (ENE) 10:00:56 435.910
UNISAT 6 20 Aug 09:53:26 09:56:49 22° 68° (ENE) 10:00:09 437.425
NO-84 20 Aug 09:57:59 10:01:06 79° 227° (SW) 10:04:29 435.350 FM
ZACube-1 20 Aug 10:00:05 10:04:22 75° 102° (ESE) 10:08:44 437.345
XW-2A 20 Aug 10:01:59 10:04:38 21° 289° (WNW) 10:07:16 145.665 - 145.685
HO-68 20 Aug 10:07:44 10:14:11 38° 296° (WNW) 10:20:38 435.675
SEEDS 20 Aug 10:12:05 10:15:16 21° 292° (WNW) 10:18:27 437.485
PRISM 20 Aug 10:13:20 10:16:46 25° 69° (ENE) 10:20:14 437.425
PCSat 20 Aug 10:19:08 10:23:30 25° 253° (WSW) 10:27:51 145.827
AO-73 20 Aug 10:21:49 10:26:04 70° 284° (WNW) 10:30:25 145.935
ISS 20 Aug 10:24:07 10:26:36 20° 132° (SE) 10:29:06 437.550
TIGRISAT 20 Aug 10:27:49 10:32:00 49° 73° (ENE) 10:36:09 435.000
nSIGHT-1 20 Aug 10:33:09 10:35:57 26° 133° (SE) 10:38:45 .
Max Valier Satellite 20 Aug 10:34:21 10:36:55 18° 94° (E) 10:39:29 145.860
DELFI C3 20 Aug 10:37:10 10:40:34 27° 96° (E) 10:43:57 145.870
UWE-3 20 Aug 10:56:20 10:58:45 15° 294° (WNW) 11:01:13 435.000/436.395/437.385
AAUSAT CUBESAT 2 20 Aug 11:00:52 11:02:56 13° 295° (WNW) 11:04:58 437.432
Tancredo 1 20 Aug 11:04:10 11:06:51 33° 329° (NNW) 11:09:32 437.200
AIST 2D 20 Aug 11:05:00 11:06:22 12° 67° (ENE) 11:07:44 435.315
Oscar 11 20 Aug 11:08:22 11:12:08 29° 290° (WNW) 11:15:54 .
M-CUBED/EXP-1 PRIME 20 Aug 11:12:50 11:16:35 27° 63° (ENE) 11:20:27 437.505
O/OREOS (USA 219) 20 Aug 11:24:54 11:28:58 34° 298° (WNW) 11:33:03 437.305
EO-88 20 Aug 11:29:12 11:32:53 72° 101° (E) 11:36:32 145.990 - 145.960
UNISAT 6 20 Aug 11:29:33 11:33:21 29° 263° (W) 11:37:08 437.425
FO-29 20 Aug 11:33:10 11:39:18 26° 266° (W) 11:45:05 435.910
RS-15 20 Aug 11:41:10 11:52:49 55° 111° (ESE) 12:04:39 29.354- 29.394
PRISM 20 Aug 11:48:33 11:51:57 24° 264° (W) 11:55:23 437.425
ISS 20 Aug 11:59:46 12:02:53 40° 327° (NNW) 12:06:01 437.550
ESTCUBE 1 20 Aug 12:02:57 12:05:38 15° 92° (E) 12:08:18 437.505/2401.250
TIGRISAT 20 Aug 12:06:51 12:08:56 13° 268° (W) 12:11:01 435.000
Max Valier Satellite 20 Aug 12:07:36 12:10:45 27° 289° (WNW) 12:13:53 145.860
nSIGHT-1 20 Aug 12:09:15 12:12:15 32° 330° (NNW) 12:15:15 .
NANOSAT C BR1 20 Aug 12:09:58 12:13:40 31° 71° (ENE) 12:17:23 145.865
DELFI C3 20 Aug 12:12:10 12:15:10 21° 291° (WNW) 12:18:09 145.870
POLYITAN 1 20 Aug 12:13:45 12:17:38 39° 72° (ENE) 12:21:33 437.675
QB50P2 20 Aug 12:28:31 12:32:41 65° 76° (ENE) 12:36:52 145.880/145.840
EO-79 20 Aug 12:29:30 12:33:39 60° 75° (ENE) 12:37:48 145.935-145.965
AIST 2D 20 Aug 12:35:58 12:39:12 36° 262° (W) 12:42:27 435.315
M-CUBED/EXP-1 PRIME 20 Aug 12:46:51 12:50:48 31° 259° (W) 12:54:55 437.505
DUCHIFAT 1 20 Aug 13:00:21 13:04:31 74° 258° (WSW) 13:08:42 145.980
LO-87 20 Aug 13:01:31 13:05:01 59° 284° (WNW) 13:08:28 145.935 - 145.965
BUGSAT 1 20 Aug 13:03:50 13:07:24 30° 71° (ENE) 13:10:58 437.445
JUGNU 20 Aug 13:04:21 13:05:32 11° 177° (S) 13:06:42 437.505
Gurwin Techsat 1B 20 Aug 13:18:50 13:21:59 16° 62° (ENE) 13:25:10 435.225
ESTCUBE 1 20 Aug 13:38:17 13:42:39 47° 288° (WNW) 13:47:00 437.505/2401.250
ISS 20 Aug 13:38:38 13:40:03 12° 346° (NNW) 13:41:29 437.550
NANOSAT C BR1 20 Aug 13:46:21 13:49:24 20° 266° (W) 13:52:28 145.865
BEESAT 3 20 Aug 13:47:21 13:48:54 12° 42° (NE) 13:50:28 437.485
VELOX 1 20 Aug 13:47:52 13:52:03 41° 98° (E) 13:56:12 145.980
Oscar 19 20 Aug 13:48:03 13:52:54 44° 71° (ENE) 13:57:48 437.125/150
nSIGHT-1 20 Aug 13:48:22 13:49:25 11° 349° (NNW) 13:50:28 .
POLYITAN 1 20 Aug 13:50:58 13:53:34 16° 267° (W) 13:56:10 437.675
DX 1 20 Aug 13:53:31 13:55:21 12° 92° (E) 13:57:11 434.975-435.025
RS-15 20 Aug 13:53:47 14:05:33 49° 314° (NW) 14:17:25 29.354- 29.394
50 SAT 20 Aug 13:57:08 13:59:16 16° 94° (E) 14:01:23 437.505
SPROUT 20 Aug 14:00:25 14:04:40 76° 103° (ESE) 14:08:54 437.525
EO-79 20 Aug 14:09:14 14:09:45 10° 270° (W) 14:10:17 145.935-145.965
BUGSAT 1 20 Aug 14:39:47 14:42:47 19° 265° (W) 14:45:46 437.445
AO-85 20 Aug 14:50:32 14:54:27 33° 52° (NE) 14:58:37 145.980
Gurwin Techsat 1B 20 Aug 14:56:05 15:01:21 65° 258° (WSW) 15:06:40 435.225
AO-7 20 Aug 14:56:31 15:03:41 33° 59° (ENE) 15:10:48 .
UKube-1 20 Aug 15:07:07 15:11:22 56° 101° (E) 15:15:34 .
ITAMSAT 1 20 Aug 15:07:57 15:11:28 19° 63° (ENE) 15:14:58 435.822/435.867
ISS 20 Aug 15:17:20 15:17:44 10° 7° (N) 15:18:08 437.550
BEESAT 3 20 Aug 15:23:01 15:27:00 77° 241° (WSW) 15:30:54 437.485
VELOX 1 20 Aug 15:25:13 15:28:10 18° 295° (WNW) 15:31:06 145.980
nSIGHT-1 20 Aug 15:26:13 15:27:00 11° 10° (N) 15:27:47 .
DX 1 20 Aug 15:27:36 15:31:50 54° 287° (WNW) 15:36:03 434.975-435.025
Oscar 19 20 Aug 15:28:35 15:32:24 21° 267° (W) 15:36:14 437.125/150
50 SAT 20 Aug 15:29:09 15:31:54 24° 290° (WNW) 15:34:40 437.505
BEESAT 2 20 Aug 15:35:28 15:39:23 45° 55° (NE) 15:43:13 435.950
Tancredo 1 20 Aug 15:52:50 15:55:10 21° 27° (NNE) 15:57:29 437.200
ITUPSAT 1 20 Aug 15:57:21 16:00:55 21° 94° (E) 16:04:28 437.325
YUBILEINY 20 Aug 16:03:15 16:10:53 35° 85° (E) 16:18:28 435.215
RS-15 20 Aug 16:13:22 16:22:12 22° 345° (NNW) 16:30:57 29.354- 29.394
AO-85 20 Aug 16:31:04 16:34:44 26° 246° (WSW) 16:38:36 145.980
UKube-1 20 Aug 16:44:54 16:46:53 13° 297° (WNW) 16:48:51 .
ITAMSAT 1 20 Aug 16:45:23 16:50:28 54° 259° (W) 16:55:35 435.822/435.867
AO-7 20 Aug 16:47:47 16:55:58 58° 257° (WSW) 17:04:13 .
MOZHAYETS 4 20 Aug 16:48:18 16:52:54 64° 101° (E) 16:57:29
SRMSAT 20 Aug 16:50:54 16:52:06 11° 183° (S) 16:53:18 437.500
ISS 20 Aug 16:52:23 16:55:08 24° 27° (NNE) 16:57:52 437.550
BEESAT 20 Aug 17:00:05 17:04:53 85° 284° (WNW) 17:09:39 436.000
nSIGHT-1 20 Aug 17:01:20 17:04:13 28° 29° (NNE) 17:07:05 .
CUBESAT XI-V 20 Aug 17:07:41 17:11:11 20° 93° (E) 17:14:38 437.345
BEESAT 2 20 Aug 17:14:25 17:16:43 15° 251° (WSW) 17:19:00 435.950
Tancredo 1 20 Aug 17:27:44 17:30:26 37° 224° (SW) 17:33:08 437.200
ITUPSAT 1 20 Aug 17:34:25 17:38:51 39° 290° (WNW) 17:43:16 437.325
XW-2D 20 Aug 17:45:42 17:46:37 11° 65° (ENE) 17:47:33 145.860 - 145.880
XW-2B 20 Aug 17:55:36 17:57:35 14° 66° (ENE) 17:59:33 145.730 - 145.750
